Index of /20260430/WXO-DD/model_gdps/15km/12/087
Name Last modified Size Description
Parent Directory -
20260430T12Z_MSC_GDPS_AbsoluteVorticity_IsbL-0200_LatLon0.15_PT087H.grib2 2026-04-30 16:24 1.5M
20260430T12Z_MSC_GDPS_AbsoluteVorticity_IsbL-0250_LatLon0.15_PT087H.grib2 2026-04-30 16:24 1.3M
20260430T12Z_MSC_GDPS_AbsoluteVorticity_IsbL-0500_LatLon0.15_PT087H.grib2 2026-04-30 16:24 1.4M
20260430T12Z_MSC_GDPS_AbsoluteVorticity_IsbL-0700_LatLon0.15_PT087H.grib2 2026-04-30 16:24 1.3M
20260430T12Z_MSC_GDPS_AbsoluteVorticity_IsbL-0850_LatLon0.15_PT087H.grib2 2026-04-30 16:24 1.6M
20260430T12Z_MSC_GDPS_AirTemp_AGL-120m_LatLon0.15_PT087H.grib2 2026-04-30 16:24 903K
20260430T12Z_MSC_GDPS_AirTemp_AGL-2m_LatLon0.15_PT087H.grib2 2026-04-30 16:24 1.0M
20260430T12Z_MSC_GDPS_AirTemp_AGL-40m_LatLon0.15_PT087H.grib2 2026-04-30 16:24 809K
20260430T12Z_MSC_GDPS_AirTemp_AGL-80m_LatLon0.15_PT087H.grib2 2026-04-30 16:24 913K
20260430T12Z_MSC_GDPS_AirTemp_IsbL-0001_LatLon0.15_PT087H.grib2 2026-04-30 16:24 655K
20260430T12Z_MSC_GDPS_AirTemp_IsbL-0005_LatLon0.15_PT087H.grib2 2026-04-30 16:24 522K
20260430T12Z_MSC_GDPS_AirTemp_IsbL-0010_LatLon0.15_PT087H.grib2 2026-04-30 16:24 690K
20260430T12Z_MSC_GDPS_AirTemp_IsbL-0020_LatLon0.15_PT087H.grib2 2026-04-30 16:24 788K
20260430T12Z_MSC_GDPS_AirTemp_IsbL-0030_LatLon0.15_PT087H.grib2 2026-04-30 16:24 755K
20260430T12Z_MSC_GDPS_AirTemp_IsbL-0050_LatLon0.15_PT087H.grib2 2026-04-30 16:24 813K
20260430T12Z_MSC_GDPS_AirTemp_IsbL-0100_LatLon0.15_PT087H.grib2 2026-04-30 16:24 969K
20260430T12Z_MSC_GDPS_AirTemp_IsbL-0150_LatLon0.15_PT087H.grib2 2026-04-30 16:24 970K
20260430T12Z_MSC_GDPS_AirTemp_IsbL-0175_LatLon0.15_PT087H.grib2 2026-04-30 16:24 955K
20260430T12Z_MSC_GDPS_AirTemp_IsbL-0200_LatLon0.15_PT087H.grib2 2026-04-30 16:24 971K
20260430T12Z_MSC_GDPS_AirTemp_IsbL-0225_LatLon0.15_PT087H.grib2 2026-04-30 16:24 1.0M
20260430T12Z_MSC_GDPS_AirTemp_IsbL-0250_LatLon0.15_PT087H.grib2 2026-04-30 16:24 1.0M
20260430T12Z_MSC_GDPS_AirTemp_IsbL-0275_LatLon0.15_PT087H.grib2 2026-04-30 16:24 1.0M
20260430T12Z_MSC_GDPS_AirTemp_IsbL-0300_LatLon0.15_PT087H.grib2 2026-04-30 16:24 1.0M
20260430T12Z_MSC_GDPS_AirTemp_IsbL-0350_LatLon0.15_PT087H.grib2 2026-04-30 16:24 924K
20260430T12Z_MSC_GDPS_AirTemp_IsbL-0400_LatLon0.15_PT087H.grib2 2026-04-30 16:24 936K
20260430T12Z_MSC_GDPS_AirTemp_IsbL-0450_LatLon0.15_PT087H.grib2 2026-04-30 16:24 956K
20260430T12Z_MSC_GDPS_AirTemp_IsbL-0500_LatLon0.15_PT087H.grib2 2026-04-30 16:24 1.0M
20260430T12Z_MSC_GDPS_AirTemp_IsbL-0550_LatLon0.15_PT087H.grib2 2026-04-30 16:24 793K
20260430T12Z_MSC_GDPS_AirTemp_IsbL-0600_LatLon0.15_PT087H.grib2 2026-04-30 16:24 885K
20260430T12Z_MSC_GDPS_AirTemp_IsbL-0650_LatLon0.15_PT087H.grib2 2026-04-30 16:24 909K
20260430T12Z_MSC_GDPS_AirTemp_IsbL-0700_LatLon0.15_PT087H.grib2 2026-04-30 16:24 943K
20260430T12Z_MSC_GDPS_AirTemp_IsbL-0750_LatLon0.15_PT087H.grib2 2026-04-30 16:24 1.0M
20260430T12Z_MSC_GDPS_AirTemp_IsbL-0800_LatLon0.15_PT087H.grib2 2026-04-30 16:24 1.0M
20260430T12Z_MSC_GDPS_AirTemp_IsbL-0850_LatLon0.15_PT087H.grib2 2026-04-30 16:24 1.1M
20260430T12Z_MSC_GDPS_AirTemp_IsbL-0875_LatLon0.15_PT087H.grib2 2026-04-30 16:24 1.2M
20260430T12Z_MSC_GDPS_AirTemp_IsbL-0900_LatLon0.15_PT087H.grib2 2026-04-30 16:24 1.1M
20260430T12Z_MSC_GDPS_AirTemp_IsbL-0925_LatLon0.15_PT087H.grib2 2026-04-30 16:24 1.1M
20260430T12Z_MSC_GDPS_AirTemp_IsbL-0950_LatLon0.15_PT087H.grib2 2026-04-30 16:24 1.1M
20260430T12Z_MSC_GDPS_AirTemp_IsbL-0970_LatLon0.15_PT087H.grib2 2026-04-30 16:24 1.1M
20260430T12Z_MSC_GDPS_AirTemp_IsbL-0985_LatLon0.15_PT087H.grib2 2026-04-30 16:24 1.1M
20260430T12Z_MSC_GDPS_AirTemp_IsbL-1000_LatLon0.15_PT087H.grib2 2026-04-30 16:24 1.1M
20260430T12Z_MSC_GDPS_AirTemp_IsbL-1015_LatLon0.15_PT087H.grib2 2026-04-30 16:24 1.1M
20260430T12Z_MSC_GDPS_Albedo_Sfc_LatLon0.15_PT087H.grib2 2026-04-30 16:24 242K
20260430T12Z_MSC_GDPS_CAPE_Sfc_LatLon0.15_PT087H.grib2 2026-04-30 16:24 4.0M
20260430T12Z_MSC_GDPS_CIN_Sfc_LatLon0.15_PT087H.grib2 2026-04-30 16:24 2.8M
20260430T12Z_MSC_GDPS_CloudWater_EAtm_LatLon0.15_PT087H.grib2 2026-04-30 16:24 529K
20260430T12Z_MSC_GDPS_ConvectivePrecip-Accum_Sfc_LatLon0.15_PT087H.grib2 2026-04-30 16:24 3.2M
20260430T12Z_MSC_GDPS_DewPointDepression_AGL-2m_LatLon0.15_PT087H.grib2 2026-04-30 16:24 764K
20260430T12Z_MSC_GDPS_DewPointDepression_IsbL-0010_LatLon0.15_PT087H.grib2 2026-04-30 16:24 66K
20260430T12Z_MSC_GDPS_DewPointDepression_IsbL-0020_LatLon0.15_PT087H.grib2 2026-04-30 16:24 69K
20260430T12Z_MSC_GDPS_DewPointDepression_IsbL-0030_LatLon0.15_PT087H.grib2 2026-04-30 16:24 85K
20260430T12Z_MSC_GDPS_DewPointDepression_IsbL-0050_LatLon0.15_PT087H.grib2 2026-04-30 16:24 379K
20260430T12Z_MSC_GDPS_DewPointDepression_IsbL-0100_LatLon0.15_PT087H.grib2 2026-04-30 16:24 405K
20260430T12Z_MSC_GDPS_DewPointDepression_IsbL-0150_LatLon0.15_PT087H.grib2 2026-04-30 16:24 464K
20260430T12Z_MSC_GDPS_DewPointDepression_IsbL-0175_LatLon0.15_PT087H.grib2 2026-04-30 16:24 580K
20260430T12Z_MSC_GDPS_DewPointDepression_IsbL-0200_LatLon0.15_PT087H.grib2 2026-04-30 16:24 682K
20260430T12Z_MSC_GDPS_DewPointDepression_IsbL-0225_LatLon0.15_PT087H.grib2 2026-04-30 16:24 775K
20260430T12Z_MSC_GDPS_DewPointDepression_IsbL-0250_LatLon0.15_PT087H.grib2 2026-04-30 16:24 850K
20260430T12Z_MSC_GDPS_DewPointDepression_IsbL-0275_LatLon0.15_PT087H.grib2 2026-04-30 16:24 868K
20260430T12Z_MSC_GDPS_DewPointDepression_IsbL-0300_LatLon0.15_PT087H.grib2 2026-04-30 16:24 912K
20260430T12Z_MSC_GDPS_DewPointDepression_IsbL-0350_LatLon0.15_PT087H.grib2 2026-04-30 16:24 949K
20260430T12Z_MSC_GDPS_DewPointDepression_IsbL-0400_LatLon0.15_PT087H.grib2 2026-04-30 16:24 1.0M
20260430T12Z_MSC_GDPS_DewPointDepression_IsbL-0450_LatLon0.15_PT087H.grib2 2026-04-30 16:24 1.0M
20260430T12Z_MSC_GDPS_DewPointDepression_IsbL-0500_LatLon0.15_PT087H.grib2 2026-04-30 16:24 1.0M
20260430T12Z_MSC_GDPS_DewPointDepression_IsbL-0550_LatLon0.15_PT087H.grib2 2026-04-30 16:24 1.0M
20260430T12Z_MSC_GDPS_DewPointDepression_IsbL-0600_LatLon0.15_PT087H.grib2 2026-04-30 16:24 1.0M
20260430T12Z_MSC_GDPS_DewPointDepression_IsbL-0650_LatLon0.15_PT087H.grib2 2026-04-30 16:24 1.1M
20260430T12Z_MSC_GDPS_DewPointDepression_IsbL-0700_LatLon0.15_PT087H.grib2 2026-04-30 16:24 1.1M
20260430T12Z_MSC_GDPS_DewPointDepression_IsbL-0750_LatLon0.15_PT087H.grib2 2026-04-30 16:24 1.1M
20260430T12Z_MSC_GDPS_DewPointDepression_IsbL-0800_LatLon0.15_PT087H.grib2 2026-04-30 16:24 1.2M
20260430T12Z_MSC_GDPS_DewPointDepression_IsbL-0850_LatLon0.15_PT087H.grib2 2026-04-30 16:24 1.2M
20260430T12Z_MSC_GDPS_DewPointDepression_IsbL-0875_LatLon0.15_PT087H.grib2 2026-04-30 16:24 1.1M
20260430T12Z_MSC_GDPS_DewPointDepression_IsbL-0900_LatLon0.15_PT087H.grib2 2026-04-30 16:24 1.1M
20260430T12Z_MSC_GDPS_DewPointDepression_IsbL-0925_LatLon0.15_PT087H.grib2 2026-04-30 16:24 1.0M
20260430T12Z_MSC_GDPS_DewPointDepression_IsbL-0950_LatLon0.15_PT087H.grib2 2026-04-30 16:24 1.0M
20260430T12Z_MSC_GDPS_DewPointDepression_IsbL-0970_LatLon0.15_PT087H.grib2 2026-04-30 16:24 1.0M
20260430T12Z_MSC_GDPS_DewPointDepression_IsbL-0985_LatLon0.15_PT087H.grib2 2026-04-30 16:24 1.0M
20260430T12Z_MSC_GDPS_DewPointDepression_IsbL-1000_LatLon0.15_PT087H.grib2 2026-04-30 16:24 972K
20260430T12Z_MSC_GDPS_DewPointDepression_IsbL-1015_LatLon0.15_PT087H.grib2 2026-04-30 16:24 914K
20260430T12Z_MSC_GDPS_DewPoint_AGL-2m_LatLon0.15_PT087H.grib2 2026-04-30 16:24 602K
20260430T12Z_MSC_GDPS_DownwardLongwaveRadiationFlux-Accum_Sfc_LatLon0.15_PT087H.grib2 2026-04-30 16:24 703K
20260430T12Z_MSC_GDPS_DownwardShortwaveRadiationFlux-Accum_NTAtm_LatLon0.15_PT087H.grib2 2026-04-30 16:24 274K
20260430T12Z_MSC_GDPS_DownwardShortwaveRadiationFlux-Accum_Sfc_LatLon0.15_PT087H.grib2 2026-04-30 16:24 913K
20260430T12Z_MSC_GDPS_FreezingRain-Accum1h_Sfc_LatLon0.15_PT087H.grib2 2026-04-30 16:24 28K
20260430T12Z_MSC_GDPS_FreezingRain-Accum3h_Sfc_LatLon0.15_PT087H.grib2 2026-04-30 16:24 35K
20260430T12Z_MSC_GDPS_FreezingRain-Accum_Sfc_LatLon0.15_PT087H.grib2 2026-04-30 16:24 341K
20260430T12Z_MSC_GDPS_GeopotentialHeight_IsbL-0001_LatLon0.15_PT087H.grib2 2026-04-30 16:24 418K
20260430T12Z_MSC_GDPS_GeopotentialHeight_IsbL-0005_LatLon0.15_PT087H.grib2 2026-04-30 16:24 486K
20260430T12Z_MSC_GDPS_GeopotentialHeight_IsbL-0010_LatLon0.15_PT087H.grib2 2026-04-30 16:24 478K
20260430T12Z_MSC_GDPS_GeopotentialHeight_IsbL-0020_LatLon0.15_PT087H.grib2 2026-04-30 16:24 410K
20260430T12Z_MSC_GDPS_GeopotentialHeight_IsbL-0030_LatLon0.15_PT087H.grib2 2026-04-30 16:24 567K
20260430T12Z_MSC_GDPS_GeopotentialHeight_IsbL-0050_LatLon0.15_PT087H.grib2 2026-04-30 16:24 566K
20260430T12Z_MSC_GDPS_GeopotentialHeight_IsbL-0100_LatLon0.15_PT087H.grib2 2026-04-30 16:24 603K
20260430T12Z_MSC_GDPS_GeopotentialHeight_IsbL-0150_LatLon0.15_PT087H.grib2 2026-04-30 16:24 621K
20260430T12Z_MSC_GDPS_GeopotentialHeight_IsbL-0175_LatLon0.15_PT087H.grib2 2026-04-30 16:24 624K
20260430T12Z_MSC_GDPS_GeopotentialHeight_IsbL-0200_LatLon0.15_PT087H.grib2 2026-04-30 16:24 628K
20260430T12Z_MSC_GDPS_GeopotentialHeight_IsbL-0225_LatLon0.15_PT087H.grib2 2026-04-30 16:24 631K
20260430T12Z_MSC_GDPS_GeopotentialHeight_IsbL-0250_LatLon0.15_PT087H.grib2 2026-04-30 16:24 635K
20260430T12Z_MSC_GDPS_GeopotentialHeight_IsbL-0275_LatLon0.15_PT087H.grib2 2026-04-30 16:24 635K
20260430T12Z_MSC_GDPS_GeopotentialHeight_IsbL-0300_LatLon0.15_PT087H.grib2 2026-04-30 16:24 634K
20260430T12Z_MSC_GDPS_GeopotentialHeight_IsbL-0350_LatLon0.15_PT087H.grib2 2026-04-30 16:24 621K
20260430T12Z_MSC_GDPS_GeopotentialHeight_IsbL-0400_LatLon0.15_PT087H.grib2 2026-04-30 16:24 614K
20260430T12Z_MSC_GDPS_GeopotentialHeight_IsbL-0450_LatLon0.15_PT087H.grib2 2026-04-30 16:24 605K
20260430T12Z_MSC_GDPS_GeopotentialHeight_IsbL-0500_LatLon0.15_PT087H.grib2 2026-04-30 16:24 597K
20260430T12Z_MSC_GDPS_GeopotentialHeight_IsbL-0550_LatLon0.15_PT087H.grib2 2026-04-30 16:24 521K
20260430T12Z_MSC_GDPS_GeopotentialHeight_IsbL-0600_LatLon0.15_PT087H.grib2 2026-04-30 16:24 518K
20260430T12Z_MSC_GDPS_GeopotentialHeight_IsbL-0650_LatLon0.15_PT087H.grib2 2026-04-30 16:24 683K
20260430T12Z_MSC_GDPS_GeopotentialHeight_IsbL-0700_LatLon0.15_PT087H.grib2 2026-04-30 16:24 677K
20260430T12Z_MSC_GDPS_GeopotentialHeight_IsbL-0750_LatLon0.15_PT087H.grib2 2026-04-30 16:24 687K
20260430T12Z_MSC_GDPS_GeopotentialHeight_IsbL-0800_LatLon0.15_PT087H.grib2 2026-04-30 16:24 698K
20260430T12Z_MSC_GDPS_GeopotentialHeight_IsbL-0850_LatLon0.15_PT087H.grib2 2026-04-30 16:24 704K
20260430T12Z_MSC_GDPS_GeopotentialHeight_IsbL-0875_LatLon0.15_PT087H.grib2 2026-04-30 16:24 710K
20260430T12Z_MSC_GDPS_GeopotentialHeight_IsbL-0900_LatLon0.15_PT087H.grib2 2026-04-30 16:24 719K
20260430T12Z_MSC_GDPS_GeopotentialHeight_IsbL-0925_LatLon0.15_PT087H.grib2 2026-04-30 16:24 729K
20260430T12Z_MSC_GDPS_GeopotentialHeight_IsbL-0950_LatLon0.15_PT087H.grib2 2026-04-30 16:24 735K
20260430T12Z_MSC_GDPS_GeopotentialHeight_IsbL-0970_LatLon0.15_PT087H.grib2 2026-04-30 16:24 747K
20260430T12Z_MSC_GDPS_GeopotentialHeight_IsbL-0985_LatLon0.15_PT087H.grib2 2026-04-30 16:24 762K
20260430T12Z_MSC_GDPS_GeopotentialHeight_IsbL-1000_LatLon0.15_PT087H.grib2 2026-04-30 16:24 781K
20260430T12Z_MSC_GDPS_GeopotentialHeight_IsbL-1015_LatLon0.15_PT087H.grib2 2026-04-30 16:24 803K
20260430T12Z_MSC_GDPS_Humidex_Sfc_LatLon0.15_PT087H.grib2 2026-04-30 16:24 5.3M
20260430T12Z_MSC_GDPS_IcePellets-Accum1h_Sfc_LatLon0.15_PT087H.grib2 2026-04-30 16:24 3.7K
20260430T12Z_MSC_GDPS_IcePellets-Accum3h_Sfc_LatLon0.15_PT087H.grib2 2026-04-30 16:24 4.8K
20260430T12Z_MSC_GDPS_IcePellets-Accum_Sfc_LatLon0.15_PT087H.grib2 2026-04-30 16:24 74K
20260430T12Z_MSC_GDPS_KIndex_Sfc_LatLon0.15_PT087H.grib2 2026-04-30 16:24 6.5M
20260430T12Z_MSC_GDPS_LatentHeatNetFlux_Sfc_LatLon0.15_PT087H.grib2 2026-04-30 16:24 680K
20260430T12Z_MSC_GDPS_LiftedIndex-MU-VT_IsbL-0500_LatLon0.15_PT087H.grib2 2026-04-30 16:24 5.4M
20260430T12Z_MSC_GDPS_NetLongwaveRadiationFlux-Accum_Sfc_LatLon0.15_PT087H.grib2 2026-04-30 16:24 937K
20260430T12Z_MSC_GDPS_NetShortwaveRadiationFlux-Accum_Sfc_LatLon0.15_PT087H.grib2 2026-04-30 16:24 900K
20260430T12Z_MSC_GDPS_O3MixingRatio_Sfc_LatLon0.15_PT087H.grib2 2026-04-30 16:45 1.9M
20260430T12Z_MSC_GDPS_O3_EAtm_LatLon0.15_PT087H.grib2 2026-04-30 16:45 2.4M
20260430T12Z_MSC_GDPS_PlanetaryBoundaryLayerHeight_Sfc_LatLon0.15_PT087H.grib2 2026-04-30 16:24 2.4M
20260430T12Z_MSC_GDPS_Precip-Accum1h_Sfc_LatLon0.15_PT087H.grib2 2026-04-30 16:24 3.2M
20260430T12Z_MSC_GDPS_Precip-Accum3h_Sfc_LatLon0.15_PT087H.grib2 2026-04-30 16:24 3.4M
20260430T12Z_MSC_GDPS_Precip-Accum_Sfc_LatLon0.15_PT087H.grib2 2026-04-30 16:24 5.3M
20260430T12Z_MSC_GDPS_PrecipRate_Sfc_LatLon0.15_PT087H.grib2 2026-04-30 16:24 3.1M
20260430T12Z_MSC_GDPS_PrecipType-Instant_Sfc_LatLon0.15_PT087H.grib2 2026-04-30 16:24 1.5M
20260430T12Z_MSC_GDPS_Pressure_MSL_LatLon0.15_PT087H.grib2 2026-04-30 16:24 816K
20260430T12Z_MSC_GDPS_Pressure_PVU-1.5_LatLon0.15_PT087H.grib2 2026-04-30 16:24 5.8M
20260430T12Z_MSC_GDPS_Pressure_PVU-1_LatLon0.15_PT087H.grib2 2026-04-30 16:24 6.0M
20260430T12Z_MSC_GDPS_Pressure_PVU-2_LatLon0.15_PT087H.grib2 2026-04-30 16:24 5.6M
20260430T12Z_MSC_GDPS_Pressure_Sfc_LatLon0.15_PT087H.grib2 2026-04-30 16:24 1.1M
20260430T12Z_MSC_GDPS_RadiativeTemp_Sfc_LatLon0.15_PT087H.grib2 2026-04-30 16:24 665K
20260430T12Z_MSC_GDPS_Rain-Accum1h_Sfc_LatLon0.15_PT087H.grib2 2026-04-30 16:24 1.6M
20260430T12Z_MSC_GDPS_Rain-Accum3h_Sfc_LatLon0.15_PT087H.grib2 2026-04-30 16:24 1.8M
20260430T12Z_MSC_GDPS_Rain-Accum_Sfc_LatLon0.15_PT087H.grib2 2026-04-30 16:24 4.0M
20260430T12Z_MSC_GDPS_RelativeHumidity_AGL-2m_LatLon0.15_PT087H.grib2 2026-04-30 16:24 1.1M
20260430T12Z_MSC_GDPS_RelativeHumidity_IsbL-0010_LatLon0.15_PT087H.grib2 2026-04-30 16:24 197K
20260430T12Z_MSC_GDPS_RelativeHumidity_IsbL-0020_LatLon0.15_PT087H.grib2 2026-04-30 16:24 167K
20260430T12Z_MSC_GDPS_RelativeHumidity_IsbL-0030_LatLon0.15_PT087H.grib2 2026-04-30 16:24 269K
20260430T12Z_MSC_GDPS_RelativeHumidity_IsbL-0050_LatLon0.15_PT087H.grib2 2026-04-30 16:24 424K
20260430T12Z_MSC_GDPS_RelativeHumidity_IsbL-0100_LatLon0.15_PT087H.grib2 2026-04-30 16:24 509K
20260430T12Z_MSC_GDPS_RelativeHumidity_IsbL-0150_LatLon0.15_PT087H.grib2 2026-04-30 16:24 658K
20260430T12Z_MSC_GDPS_RelativeHumidity_IsbL-0175_LatLon0.15_PT087H.grib2 2026-04-30 16:24 783K
20260430T12Z_MSC_GDPS_RelativeHumidity_IsbL-0200_LatLon0.15_PT087H.grib2 2026-04-30 16:24 701K
20260430T12Z_MSC_GDPS_RelativeHumidity_IsbL-0225_LatLon0.15_PT087H.grib2 2026-04-30 16:24 788K
20260430T12Z_MSC_GDPS_RelativeHumidity_IsbL-0250_LatLon0.15_PT087H.grib2 2026-04-30 16:24 856K
20260430T12Z_MSC_GDPS_RelativeHumidity_IsbL-0275_LatLon0.15_PT087H.grib2 2026-04-30 16:24 876K
20260430T12Z_MSC_GDPS_RelativeHumidity_IsbL-0300_LatLon0.15_PT087H.grib2 2026-04-30 16:24 918K
20260430T12Z_MSC_GDPS_RelativeHumidity_IsbL-0350_LatLon0.15_PT087H.grib2 2026-04-30 16:24 944K
20260430T12Z_MSC_GDPS_RelativeHumidity_IsbL-0400_LatLon0.15_PT087H.grib2 2026-04-30 16:24 969K
20260430T12Z_MSC_GDPS_RelativeHumidity_IsbL-0450_LatLon0.15_PT087H.grib2 2026-04-30 16:24 1.0M
20260430T12Z_MSC_GDPS_RelativeHumidity_IsbL-0500_LatLon0.15_PT087H.grib2 2026-04-30 16:24 1.0M
20260430T12Z_MSC_GDPS_RelativeHumidity_IsbL-0550_LatLon0.15_PT087H.grib2 2026-04-30 16:24 1.1M
20260430T12Z_MSC_GDPS_RelativeHumidity_IsbL-0600_LatLon0.15_PT087H.grib2 2026-04-30 16:24 1.0M
20260430T12Z_MSC_GDPS_RelativeHumidity_IsbL-0650_LatLon0.15_PT087H.grib2 2026-04-30 16:24 1.0M
20260430T12Z_MSC_GDPS_RelativeHumidity_IsbL-0700_LatLon0.15_PT087H.grib2 2026-04-30 16:24 1.1M
20260430T12Z_MSC_GDPS_RelativeHumidity_IsbL-0750_LatLon0.15_PT087H.grib2 2026-04-30 16:24 1.2M
20260430T12Z_MSC_GDPS_RelativeHumidity_IsbL-0800_LatLon0.15_PT087H.grib2 2026-04-30 16:24 1.2M
20260430T12Z_MSC_GDPS_RelativeHumidity_IsbL-0850_LatLon0.15_PT087H.grib2 2026-04-30 16:24 1.3M
20260430T12Z_MSC_GDPS_RelativeHumidity_IsbL-0875_LatLon0.15_PT087H.grib2 2026-04-30 16:24 1.3M
20260430T12Z_MSC_GDPS_RelativeHumidity_IsbL-0900_LatLon0.15_PT087H.grib2 2026-04-30 16:24 1.2M
20260430T12Z_MSC_GDPS_RelativeHumidity_IsbL-0925_LatLon0.15_PT087H.grib2 2026-04-30 16:24 1.2M
20260430T12Z_MSC_GDPS_RelativeHumidity_IsbL-0950_LatLon0.15_PT087H.grib2 2026-04-30 16:24 1.2M
20260430T12Z_MSC_GDPS_RelativeHumidity_IsbL-0970_LatLon0.15_PT087H.grib2 2026-04-30 16:24 1.2M
20260430T12Z_MSC_GDPS_RelativeHumidity_IsbL-0985_LatLon0.15_PT087H.grib2 2026-04-30 16:24 1.1M
20260430T12Z_MSC_GDPS_RelativeHumidity_IsbL-1000_LatLon0.15_PT087H.grib2 2026-04-30 16:24 1.1M
20260430T12Z_MSC_GDPS_RelativeHumidity_IsbL-1015_LatLon0.15_PT087H.grib2 2026-04-30 16:24 1.0M
20260430T12Z_MSC_GDPS_RelativeVorticity_IsbL-0200_LatLon0.15_PT087H.grib2 2026-04-30 16:24 1.5M
20260430T12Z_MSC_GDPS_RelativeVorticity_IsbL-0250_LatLon0.15_PT087H.grib2 2026-04-30 16:24 1.6M
20260430T12Z_MSC_GDPS_RelativeVorticity_IsbL-0500_LatLon0.15_PT087H.grib2 2026-04-30 16:24 1.4M
20260430T12Z_MSC_GDPS_RelativeVorticity_IsbL-0700_LatLon0.15_PT087H.grib2 2026-04-30 16:24 1.6M
20260430T12Z_MSC_GDPS_RelativeVorticity_IsbL-0850_LatLon0.15_PT087H.grib2 2026-04-30 16:24 1.6M
20260430T12Z_MSC_GDPS_Runoff-Accum_Sfc_LatLon0.15_PT087H.grib2 2026-04-30 16:24 123K
20260430T12Z_MSC_GDPS_SensibleHeatNetFlux_Sfc_LatLon0.15_PT087H.grib2 2026-04-30 16:24 627K
20260430T12Z_MSC_GDPS_ShowalterIndex_IsbL-0500_LatLon0.15_PT087H.grib2 2026-04-30 16:24 6.2M
20260430T12Z_MSC_GDPS_Snow-Accum1h_Sfc_LatLon0.15_PT087H.grib2 2026-04-30 16:24 1.1M
20260430T12Z_MSC_GDPS_Snow-Accum3h_Sfc_LatLon0.15_PT087H.grib2 2026-04-30 16:24 1.0M
20260430T12Z_MSC_GDPS_Snow-Accum_Sfc_LatLon0.15_PT087H.grib2 2026-04-30 16:24 2.0M
20260430T12Z_MSC_GDPS_SnowDensity_Sfc_LatLon0.15_PT087H.grib2 2026-04-30 16:24 263K
20260430T12Z_MSC_GDPS_SnowDepth_Sfc_LatLon0.15_PT087H.grib2 2026-04-30 16:24 1.7M
20260430T12Z_MSC_GDPS_SoilTemp_DBS-0to10cm_LatLon0.15_PT087H.grib2 2026-04-30 16:24 510K
20260430T12Z_MSC_GDPS_SoilTemp_Sfc_LatLon0.15_PT087H.grib2 2026-04-30 16:24 583K
20260430T12Z_MSC_GDPS_SoilVolumetricIceContent_Sfc_LatLon0.15_PT087H.grib2 2026-04-30 16:24 197K
20260430T12Z_MSC_GDPS_SoilVolumetricWaterContent_DBS-0to10cm_LatLon0.15_PT087H.grib2 2026-04-30 16:24 589K
20260430T12Z_MSC_GDPS_SoilVolumetricWaterContent_DBS-0to1cm_LatLon0.15_PT087H.grib2 2026-04-30 16:24 653K
20260430T12Z_MSC_GDPS_SpecificHumidity_AGL-120m_LatLon0.15_PT087H.grib2 2026-04-30 16:24 1.1M
20260430T12Z_MSC_GDPS_SpecificHumidity_AGL-2m_LatLon0.15_PT087H.grib2 2026-04-30 16:24 1.2M
20260430T12Z_MSC_GDPS_SpecificHumidity_AGL-40m_LatLon0.15_PT087H.grib2 2026-04-30 16:24 1.1M
20260430T12Z_MSC_GDPS_SpecificHumidity_AGL-80m_LatLon0.15_PT087H.grib2 2026-04-30 16:24 1.1M
20260430T12Z_MSC_GDPS_SpecificHumidity_IsbL-0001_LatLon0.15_PT087H.grib2 2026-04-30 16:24 1.3M
20260430T12Z_MSC_GDPS_SpecificHumidity_IsbL-0005_LatLon0.15_PT087H.grib2 2026-04-30 16:24 1.2M
20260430T12Z_MSC_GDPS_SpecificHumidity_IsbL-0010_LatLon0.15_PT087H.grib2 2026-04-30 16:24 1.3M
20260430T12Z_MSC_GDPS_SpecificHumidity_IsbL-0020_LatLon0.15_PT087H.grib2 2026-04-30 16:24 1.3M
20260430T12Z_MSC_GDPS_SpecificHumidity_IsbL-0030_LatLon0.15_PT087H.grib2 2026-04-30 16:24 1.3M
20260430T12Z_MSC_GDPS_SpecificHumidity_IsbL-0050_LatLon0.15_PT087H.grib2 2026-04-30 16:24 1.6M
20260430T12Z_MSC_GDPS_SpecificHumidity_IsbL-0100_LatLon0.15_PT087H.grib2 2026-04-30 16:24 1.3M
20260430T12Z_MSC_GDPS_SpecificHumidity_IsbL-0150_LatLon0.15_PT087H.grib2 2026-04-30 16:24 1.3M
20260430T12Z_MSC_GDPS_SpecificHumidity_IsbL-0175_LatLon0.15_PT087H.grib2 2026-04-30 16:24 1.3M
20260430T12Z_MSC_GDPS_SpecificHumidity_IsbL-0200_LatLon0.15_PT087H.grib2 2026-04-30 16:24 1.3M
20260430T12Z_MSC_GDPS_SpecificHumidity_IsbL-0225_LatLon0.15_PT087H.grib2 2026-04-30 16:24 1.3M
20260430T12Z_MSC_GDPS_SpecificHumidity_IsbL-0250_LatLon0.15_PT087H.grib2 2026-04-30 16:24 1.4M
20260430T12Z_MSC_GDPS_SpecificHumidity_IsbL-0275_LatLon0.15_PT087H.grib2 2026-04-30 16:24 1.3M
20260430T12Z_MSC_GDPS_SpecificHumidity_IsbL-0300_LatLon0.15_PT087H.grib2 2026-04-30 16:24 1.2M
20260430T12Z_MSC_GDPS_SpecificHumidity_IsbL-0350_LatLon0.15_PT087H.grib2 2026-04-30 16:24 1.2M
20260430T12Z_MSC_GDPS_SpecificHumidity_IsbL-0400_LatLon0.15_PT087H.grib2 2026-04-30 16:24 1.4M
20260430T12Z_MSC_GDPS_SpecificHumidity_IsbL-0450_LatLon0.15_PT087H.grib2 2026-04-30 16:24 1.6M
20260430T12Z_MSC_GDPS_SpecificHumidity_IsbL-0500_LatLon0.15_PT087H.grib2 2026-04-30 16:24 1.4M
20260430T12Z_MSC_GDPS_SpecificHumidity_IsbL-0550_LatLon0.15_PT087H.grib2 2026-04-30 16:24 1.6M
20260430T12Z_MSC_GDPS_SpecificHumidity_IsbL-0600_LatLon0.15_PT087H.grib2 2026-04-30 16:24 1.7M
20260430T12Z_MSC_GDPS_SpecificHumidity_IsbL-0650_LatLon0.15_PT087H.grib2 2026-04-30 16:24 1.5M
20260430T12Z_MSC_GDPS_SpecificHumidity_IsbL-0700_LatLon0.15_PT087H.grib2 2026-04-30 16:24 1.6M
20260430T12Z_MSC_GDPS_SpecificHumidity_IsbL-0750_LatLon0.15_PT087H.grib2 2026-04-30 16:24 1.7M
20260430T12Z_MSC_GDPS_SpecificHumidity_IsbL-0800_LatLon0.15_PT087H.grib2 2026-04-30 16:24 1.8M
20260430T12Z_MSC_GDPS_SpecificHumidity_IsbL-0850_LatLon0.15_PT087H.grib2 2026-04-30 16:24 1.9M
20260430T12Z_MSC_GDPS_SpecificHumidity_IsbL-0875_LatLon0.15_PT087H.grib2 2026-04-30 16:24 1.9M
20260430T12Z_MSC_GDPS_SpecificHumidity_IsbL-0900_LatLon0.15_PT087H.grib2 2026-04-30 16:24 1.9M
20260430T12Z_MSC_GDPS_SpecificHumidity_IsbL-0925_LatLon0.15_PT087H.grib2 2026-04-30 16:24 1.6M
20260430T12Z_MSC_GDPS_SpecificHumidity_IsbL-0950_LatLon0.15_PT087H.grib2 2026-04-30 16:24 1.5M
20260430T12Z_MSC_GDPS_SpecificHumidity_IsbL-0970_LatLon0.15_PT087H.grib2 2026-04-30 16:24 1.5M
20260430T12Z_MSC_GDPS_SpecificHumidity_IsbL-0985_LatLon0.15_PT087H.grib2 2026-04-30 16:24 1.5M
20260430T12Z_MSC_GDPS_SpecificHumidity_IsbL-1000_LatLon0.15_PT087H.grib2 2026-04-30 16:24 1.5M
20260430T12Z_MSC_GDPS_SpecificHumidity_IsbL-1015_LatLon0.15_PT087H.grib2 2026-04-30 16:24 1.4M
20260430T12Z_MSC_GDPS_SpecificHumidity_Sfc_LatLon0.15_PT087H.grib2 2026-04-30 16:24 635K
20260430T12Z_MSC_GDPS_Thickness_IsbL-0850to0700_LatLon0.15_PT087H.grib2 2026-04-30 16:24 464K
20260430T12Z_MSC_GDPS_Thickness_IsbL-1000to0500_LatLon0.15_PT087H.grib2 2026-04-30 16:24 369K
20260430T12Z_MSC_GDPS_Thickness_IsbL-1000to0850_LatLon0.15_PT087H.grib2 2026-04-30 16:24 488K
20260430T12Z_MSC_GDPS_TotalCloudCover_Sfc_LatLon0.15_PT087H.grib2 2026-04-30 16:24 822K
20260430T12Z_MSC_GDPS_TotalTotalsIndex_Sfc_LatLon0.15_PT087H.grib2 2026-04-30 16:24 6.2M
20260430T12Z_MSC_GDPS_UVIndex-ClearSky_Sfc_LatLon0.15_PT087H.grib2 2026-04-30 16:45 1.0M
20260430T12Z_MSC_GDPS_UVIndex_Sfc_LatLon0.15_PT087H.grib2 2026-04-30 16:45 1.5M
20260430T12Z_MSC_GDPS_UpwardLongwaveRadiationFlux_NTAtm_LatLon0.15_PT087H.grib2 2026-04-30 16:24 1.1M
20260430T12Z_MSC_GDPS_VerticalVelocity_IsbL-0200_LatLon0.15_PT087H.grib2 2026-04-30 16:24 1.2M
20260430T12Z_MSC_GDPS_VerticalVelocity_IsbL-0250_LatLon0.15_PT087H.grib2 2026-04-30 16:24 1.0M
20260430T12Z_MSC_GDPS_VerticalVelocity_IsbL-0500_LatLon0.15_PT087H.grib2 2026-04-30 16:24 1.0M
20260430T12Z_MSC_GDPS_VerticalVelocity_IsbL-0600_LatLon0.15_PT087H.grib2 2026-04-30 16:24 1.0M
20260430T12Z_MSC_GDPS_VerticalVelocity_IsbL-0700_LatLon0.15_PT087H.grib2 2026-04-30 16:24 1.4M
20260430T12Z_MSC_GDPS_VerticalVelocity_IsbL-0850_LatLon0.15_PT087H.grib2 2026-04-30 16:24 1.6M
20260430T12Z_MSC_GDPS_WindChill_Sfc_LatLon0.15_PT087H.grib2 2026-04-30 16:24 5.3M
20260430T12Z_MSC_GDPS_WindDir_AGL-10m_LatLon0.15_PT087H.grib2 2026-04-30 16:24 1.3M
20260430T12Z_MSC_GDPS_WindDir_AGL-120m_LatLon0.15_PT087H.grib2 2026-04-30 16:24 1.3M
20260430T12Z_MSC_GDPS_WindDir_AGL-40m_LatLon0.15_PT087H.grib2 2026-04-30 16:24 1.4M
20260430T12Z_MSC_GDPS_WindDir_AGL-80m_LatLon0.15_PT087H.grib2 2026-04-30 16:24 1.4M
20260430T12Z_MSC_GDPS_WindDir_IsbL-0001_LatLon0.15_PT087H.grib2 2026-04-30 16:24 683K
20260430T12Z_MSC_GDPS_WindDir_IsbL-0005_LatLon0.15_PT087H.grib2 2026-04-30 16:24 797K
20260430T12Z_MSC_GDPS_WindDir_IsbL-0010_LatLon0.15_PT087H.grib2 2026-04-30 16:24 843K
20260430T12Z_MSC_GDPS_WindDir_IsbL-0020_LatLon0.15_PT087H.grib2 2026-04-30 16:24 952K
20260430T12Z_MSC_GDPS_WindDir_IsbL-0030_LatLon0.15_PT087H.grib2 2026-04-30 16:24 940K
20260430T12Z_MSC_GDPS_WindDir_IsbL-0050_LatLon0.15_PT087H.grib2 2026-04-30 16:24 935K
20260430T12Z_MSC_GDPS_WindDir_IsbL-0100_LatLon0.15_PT087H.grib2 2026-04-30 16:24 1.0M
20260430T12Z_MSC_GDPS_WindDir_IsbL-0150_LatLon0.15_PT087H.grib2 2026-04-30 16:24 1.0M
20260430T12Z_MSC_GDPS_WindDir_IsbL-0175_LatLon0.15_PT087H.grib2 2026-04-30 16:24 1.0M
20260430T12Z_MSC_GDPS_WindDir_IsbL-0200_LatLon0.15_PT087H.grib2 2026-04-30 16:24 1.1M
20260430T12Z_MSC_GDPS_WindDir_IsbL-0225_LatLon0.15_PT087H.grib2 2026-04-30 16:24 1.1M
20260430T12Z_MSC_GDPS_WindDir_IsbL-0250_LatLon0.15_PT087H.grib2 2026-04-30 16:24 1.1M
20260430T12Z_MSC_GDPS_WindDir_IsbL-0275_LatLon0.15_PT087H.grib2 2026-04-30 16:24 1.2M
20260430T12Z_MSC_GDPS_WindDir_IsbL-0300_LatLon0.15_PT087H.grib2 2026-04-30 16:24 1.2M
20260430T12Z_MSC_GDPS_WindDir_IsbL-0350_LatLon0.15_PT087H.grib2 2026-04-30 16:24 1.2M
20260430T12Z_MSC_GDPS_WindDir_IsbL-0400_LatLon0.15_PT087H.grib2 2026-04-30 16:24 1.3M
20260430T12Z_MSC_GDPS_WindDir_IsbL-0450_LatLon0.15_PT087H.grib2 2026-04-30 16:24 1.3M
20260430T12Z_MSC_GDPS_WindDir_IsbL-0500_LatLon0.15_PT087H.grib2 2026-04-30 16:24 1.3M
20260430T12Z_MSC_GDPS_WindDir_IsbL-0550_LatLon0.15_PT087H.grib2 2026-04-30 16:24 1.4M
20260430T12Z_MSC_GDPS_WindDir_IsbL-0600_LatLon0.15_PT087H.grib2 2026-04-30 16:24 1.4M
20260430T12Z_MSC_GDPS_WindDir_IsbL-0650_LatLon0.15_PT087H.grib2 2026-04-30 16:24 1.5M
20260430T12Z_MSC_GDPS_WindDir_IsbL-0700_LatLon0.15_PT087H.grib2 2026-04-30 16:24 1.6M
20260430T12Z_MSC_GDPS_WindDir_IsbL-0750_LatLon0.15_PT087H.grib2 2026-04-30 16:24 1.7M
20260430T12Z_MSC_GDPS_WindDir_IsbL-0800_LatLon0.15_PT087H.grib2 2026-04-30 16:24 1.8M
20260430T12Z_MSC_GDPS_WindDir_IsbL-0850_LatLon0.15_PT087H.grib2 2026-04-30 16:24 1.9M
20260430T12Z_MSC_GDPS_WindDir_IsbL-0875_LatLon0.15_PT087H.grib2 2026-04-30 16:24 1.9M
20260430T12Z_MSC_GDPS_WindDir_IsbL-0900_LatLon0.15_PT087H.grib2 2026-04-30 16:24 2.0M
20260430T12Z_MSC_GDPS_WindDir_IsbL-0925_LatLon0.15_PT087H.grib2 2026-04-30 16:24 2.0M
20260430T12Z_MSC_GDPS_WindDir_IsbL-0950_LatLon0.15_PT087H.grib2 2026-04-30 16:24 2.0M
20260430T12Z_MSC_GDPS_WindDir_IsbL-0970_LatLon0.15_PT087H.grib2 2026-04-30 16:24 2.0M
20260430T12Z_MSC_GDPS_WindDir_IsbL-0985_LatLon0.15_PT087H.grib2 2026-04-30 16:24 2.0M
20260430T12Z_MSC_GDPS_WindDir_IsbL-1000_LatLon0.15_PT087H.grib2 2026-04-30 16:24 2.0M
20260430T12Z_MSC_GDPS_WindDir_IsbL-1015_LatLon0.15_PT087H.grib2 2026-04-30 16:24 2.0M
20260430T12Z_MSC_GDPS_WindGust-Max_AGL-10m_LatLon0.15_PT087H.grib2 2026-04-30 16:24 2.2M
20260430T12Z_MSC_GDPS_WindGust-Min_AGL-10m_LatLon0.15_PT087H.grib2 2026-04-30 16:24 2.2M
20260430T12Z_MSC_GDPS_WindGust_AGL-10m_LatLon0.15_PT087H.grib2 2026-04-30 16:24 2.2M
20260430T12Z_MSC_GDPS_WindSpeed_AGL-10m_LatLon0.15_PT087H.grib2 2026-04-30 16:24 1.1M
20260430T12Z_MSC_GDPS_WindSpeed_AGL-120m_LatLon0.15_PT087H.grib2 2026-04-30 16:24 1.2M
20260430T12Z_MSC_GDPS_WindSpeed_AGL-40m_LatLon0.15_PT087H.grib2 2026-04-30 16:24 1.2M
20260430T12Z_MSC_GDPS_WindSpeed_AGL-80m_LatLon0.15_PT087H.grib2 2026-04-30 16:24 1.2M
20260430T12Z_MSC_GDPS_WindSpeed_IsbL-0001_LatLon0.15_PT087H.grib2 2026-04-30 16:24 644K
20260430T12Z_MSC_GDPS_WindSpeed_IsbL-0005_LatLon0.15_PT087H.grib2 2026-04-30 16:24 688K
20260430T12Z_MSC_GDPS_WindSpeed_IsbL-0010_LatLon0.15_PT087H.grib2 2026-04-30 16:24 623K
20260430T12Z_MSC_GDPS_WindSpeed_IsbL-0020_LatLon0.15_PT087H.grib2 2026-04-30 16:24 666K
20260430T12Z_MSC_GDPS_WindSpeed_IsbL-0030_LatLon0.15_PT087H.grib2 2026-04-30 16:24 865K
20260430T12Z_MSC_GDPS_WindSpeed_IsbL-0050_LatLon0.15_PT087H.grib2 2026-04-30 16:24 909K
20260430T12Z_MSC_GDPS_WindSpeed_IsbL-0100_LatLon0.15_PT087H.grib2 2026-04-30 16:24 1.1M
20260430T12Z_MSC_GDPS_WindSpeed_IsbL-0150_LatLon0.15_PT087H.grib2 2026-04-30 16:24 948K
20260430T12Z_MSC_GDPS_WindSpeed_IsbL-0175_LatLon0.15_PT087H.grib2 2026-04-30 16:24 1.0M
20260430T12Z_MSC_GDPS_WindSpeed_IsbL-0200_LatLon0.15_PT087H.grib2 2026-04-30 16:24 1.1M
20260430T12Z_MSC_GDPS_WindSpeed_IsbL-0225_LatLon0.15_PT087H.grib2 2026-04-30 16:24 1.1M
20260430T12Z_MSC_GDPS_WindSpeed_IsbL-0250_LatLon0.15_PT087H.grib2 2026-04-30 16:24 1.1M
20260430T12Z_MSC_GDPS_WindSpeed_IsbL-0275_LatLon0.15_PT087H.grib2 2026-04-30 16:24 1.1M
20260430T12Z_MSC_GDPS_WindSpeed_IsbL-0300_LatLon0.15_PT087H.grib2 2026-04-30 16:24 1.1M
20260430T12Z_MSC_GDPS_WindSpeed_IsbL-0350_LatLon0.15_PT087H.grib2 2026-04-30 16:24 1.1M
20260430T12Z_MSC_GDPS_WindSpeed_IsbL-0400_LatLon0.15_PT087H.grib2 2026-04-30 16:24 1.1M
20260430T12Z_MSC_GDPS_WindSpeed_IsbL-0450_LatLon0.15_PT087H.grib2 2026-04-30 16:24 1.1M
20260430T12Z_MSC_GDPS_WindSpeed_IsbL-0500_LatLon0.15_PT087H.grib2 2026-04-30 16:24 1.1M
20260430T12Z_MSC_GDPS_WindSpeed_IsbL-0550_LatLon0.15_PT087H.grib2 2026-04-30 16:24 1.1M
20260430T12Z_MSC_GDPS_WindSpeed_IsbL-0600_LatLon0.15_PT087H.grib2 2026-04-30 16:24 1.4M
20260430T12Z_MSC_GDPS_WindSpeed_IsbL-0650_LatLon0.15_PT087H.grib2 2026-04-30 16:24 1.4M
20260430T12Z_MSC_GDPS_WindSpeed_IsbL-0700_LatLon0.15_PT087H.grib2 2026-04-30 16:24 1.5M
20260430T12Z_MSC_GDPS_WindSpeed_IsbL-0750_LatLon0.15_PT087H.grib2 2026-04-30 16:24 1.5M
20260430T12Z_MSC_GDPS_WindSpeed_IsbL-0800_LatLon0.15_PT087H.grib2 2026-04-30 16:24 1.6M
20260430T12Z_MSC_GDPS_WindSpeed_IsbL-0850_LatLon0.15_PT087H.grib2 2026-04-30 16:24 1.4M
20260430T12Z_MSC_GDPS_WindSpeed_IsbL-0875_LatLon0.15_PT087H.grib2 2026-04-30 16:24 1.8M
20260430T12Z_MSC_GDPS_WindSpeed_IsbL-0900_LatLon0.15_PT087H.grib2 2026-04-30 16:24 1.8M
20260430T12Z_MSC_GDPS_WindSpeed_IsbL-0925_LatLon0.15_PT087H.grib2 2026-04-30 16:24 1.8M
20260430T12Z_MSC_GDPS_WindSpeed_IsbL-0950_LatLon0.15_PT087H.grib2 2026-04-30 16:24 1.9M
20260430T12Z_MSC_GDPS_WindSpeed_IsbL-0970_LatLon0.15_PT087H.grib2 2026-04-30 16:24 1.9M
20260430T12Z_MSC_GDPS_WindSpeed_IsbL-0985_LatLon0.15_PT087H.grib2 2026-04-30 16:24 1.8M
20260430T12Z_MSC_GDPS_WindSpeed_IsbL-1000_LatLon0.15_PT087H.grib2 2026-04-30 16:24 1.8M
20260430T12Z_MSC_GDPS_WindSpeed_IsbL-1015_LatLon0.15_PT087H.grib2 2026-04-30 16:24 1.8M
20260430T12Z_MSC_GDPS_WindU_AGL-10m_LatLon0.15_PT087H.grib2 2026-04-30 16:24 1.3M
20260430T12Z_MSC_GDPS_WindU_AGL-120m_LatLon0.15_PT087H.grib2 2026-04-30 16:24 969K
20260430T12Z_MSC_GDPS_WindU_AGL-40m_LatLon0.15_PT087H.grib2 2026-04-30 16:24 963K
20260430T12Z_MSC_GDPS_WindU_AGL-80m_LatLon0.15_PT087H.grib2 2026-04-30 16:24 968K
20260430T12Z_MSC_GDPS_WindU_IsbL-0001_LatLon0.15_PT087H.grib2 2026-04-30 16:24 502K
20260430T12Z_MSC_GDPS_WindU_IsbL-0005_LatLon0.15_PT087H.grib2 2026-04-30 16:24 690K
20260430T12Z_MSC_GDPS_WindU_IsbL-0010_LatLon0.15_PT087H.grib2 2026-04-30 16:24 699K
20260430T12Z_MSC_GDPS_WindU_IsbL-0020_LatLon0.15_PT087H.grib2 2026-04-30 16:24 733K
20260430T12Z_MSC_GDPS_WindU_IsbL-0030_LatLon0.15_PT087H.grib2 2026-04-30 16:24 740K
20260430T12Z_MSC_GDPS_WindU_IsbL-0050_LatLon0.15_PT087H.grib2 2026-04-30 16:24 700K
20260430T12Z_MSC_GDPS_WindU_IsbL-0100_LatLon0.15_PT087H.grib2 2026-04-30 16:24 924K
20260430T12Z_MSC_GDPS_WindU_IsbL-0150_LatLon0.15_PT087H.grib2 2026-04-30 16:24 1.0M
20260430T12Z_MSC_GDPS_WindU_IsbL-0175_LatLon0.15_PT087H.grib2 2026-04-30 16:24 1.0M
20260430T12Z_MSC_GDPS_WindU_IsbL-0200_LatLon0.15_PT087H.grib2 2026-04-30 16:24 837K
20260430T12Z_MSC_GDPS_WindU_IsbL-0225_LatLon0.15_PT087H.grib2 2026-04-30 16:24 850K
20260430T12Z_MSC_GDPS_WindU_IsbL-0250_LatLon0.15_PT087H.grib2 2026-04-30 16:24 854K
20260430T12Z_MSC_GDPS_WindU_IsbL-0275_LatLon0.15_PT087H.grib2 2026-04-30 16:24 881K
20260430T12Z_MSC_GDPS_WindU_IsbL-0300_LatLon0.15_PT087H.grib2 2026-04-30 16:24 871K
20260430T12Z_MSC_GDPS_WindU_IsbL-0350_LatLon0.15_PT087H.grib2 2026-04-30 16:24 883K
20260430T12Z_MSC_GDPS_WindU_IsbL-0400_LatLon0.15_PT087H.grib2 2026-04-30 16:24 1.1M
20260430T12Z_MSC_GDPS_WindU_IsbL-0450_LatLon0.15_PT087H.grib2 2026-04-30 16:24 1.1M
20260430T12Z_MSC_GDPS_WindU_IsbL-0500_LatLon0.15_PT087H.grib2 2026-04-30 16:24 1.1M
20260430T12Z_MSC_GDPS_WindU_IsbL-0550_LatLon0.15_PT087H.grib2 2026-04-30 16:24 1.1M
20260430T12Z_MSC_GDPS_WindU_IsbL-0600_LatLon0.15_PT087H.grib2 2026-04-30 16:24 1.1M
20260430T12Z_MSC_GDPS_WindU_IsbL-0650_LatLon0.15_PT087H.grib2 2026-04-30 16:24 1.2M
20260430T12Z_MSC_GDPS_WindU_IsbL-0700_LatLon0.15_PT087H.grib2 2026-04-30 16:24 1.2M
20260430T12Z_MSC_GDPS_WindU_IsbL-0750_LatLon0.15_PT087H.grib2 2026-04-30 16:24 1.2M
20260430T12Z_MSC_GDPS_WindU_IsbL-0800_LatLon0.15_PT087H.grib2 2026-04-30 16:24 1.3M
20260430T12Z_MSC_GDPS_WindU_IsbL-0850_LatLon0.15_PT087H.grib2 2026-04-30 16:24 1.4M
20260430T12Z_MSC_GDPS_WindU_IsbL-0875_LatLon0.15_PT087H.grib2 2026-04-30 16:24 1.4M
20260430T12Z_MSC_GDPS_WindU_IsbL-0900_LatLon0.15_PT087H.grib2 2026-04-30 16:24 1.5M
20260430T12Z_MSC_GDPS_WindU_IsbL-0925_LatLon0.15_PT087H.grib2 2026-04-30 16:24 1.5M
20260430T12Z_MSC_GDPS_WindU_IsbL-0950_LatLon0.15_PT087H.grib2 2026-04-30 16:24 1.4M
20260430T12Z_MSC_GDPS_WindU_IsbL-0970_LatLon0.15_PT087H.grib2 2026-04-30 16:24 1.4M
20260430T12Z_MSC_GDPS_WindU_IsbL-0985_LatLon0.15_PT087H.grib2 2026-04-30 16:24 1.4M
20260430T12Z_MSC_GDPS_WindU_IsbL-1000_LatLon0.15_PT087H.grib2 2026-04-30 16:24 1.4M
20260430T12Z_MSC_GDPS_WindU_IsbL-1015_LatLon0.15_PT087H.grib2 2026-04-30 16:24 1.3M
20260430T12Z_MSC_GDPS_WindV_AGL-10m_LatLon0.15_PT087H.grib2 2026-04-30 16:24 1.5M
20260430T12Z_MSC_GDPS_WindV_AGL-120m_LatLon0.15_PT087H.grib2 2026-04-30 16:24 964K
20260430T12Z_MSC_GDPS_WindV_AGL-40m_LatLon0.15_PT087H.grib2 2026-04-30 16:24 957K
20260430T12Z_MSC_GDPS_WindV_AGL-80m_LatLon0.15_PT087H.grib2 2026-04-30 16:24 964K
20260430T12Z_MSC_GDPS_WindV_IsbL-0001_LatLon0.15_PT087H.grib2 2026-04-30 16:24 778K
20260430T12Z_MSC_GDPS_WindV_IsbL-0005_LatLon0.15_PT087H.grib2 2026-04-30 16:24 854K
20260430T12Z_MSC_GDPS_WindV_IsbL-0010_LatLon0.15_PT087H.grib2 2026-04-30 16:24 807K
20260430T12Z_MSC_GDPS_WindV_IsbL-0020_LatLon0.15_PT087H.grib2 2026-04-30 16:24 936K
20260430T12Z_MSC_GDPS_WindV_IsbL-0030_LatLon0.15_PT087H.grib2 2026-04-30 16:24 941K
20260430T12Z_MSC_GDPS_WindV_IsbL-0050_LatLon0.15_PT087H.grib2 2026-04-30 16:24 1.0M
20260430T12Z_MSC_GDPS_WindV_IsbL-0100_LatLon0.15_PT087H.grib2 2026-04-30 16:24 855K
20260430T12Z_MSC_GDPS_WindV_IsbL-0150_LatLon0.15_PT087H.grib2 2026-04-30 16:24 1.0M
20260430T12Z_MSC_GDPS_WindV_IsbL-0175_LatLon0.15_PT087H.grib2 2026-04-30 16:24 1.0M
20260430T12Z_MSC_GDPS_WindV_IsbL-0200_LatLon0.15_PT087H.grib2 2026-04-30 16:24 837K
20260430T12Z_MSC_GDPS_WindV_IsbL-0225_LatLon0.15_PT087H.grib2 2026-04-30 16:24 847K
20260430T12Z_MSC_GDPS_WindV_IsbL-0250_LatLon0.15_PT087H.grib2 2026-04-30 16:24 845K
20260430T12Z_MSC_GDPS_WindV_IsbL-0275_LatLon0.15_PT087H.grib2 2026-04-30 16:24 929K
20260430T12Z_MSC_GDPS_WindV_IsbL-0300_LatLon0.15_PT087H.grib2 2026-04-30 16:24 919K
20260430T12Z_MSC_GDPS_WindV_IsbL-0350_LatLon0.15_PT087H.grib2 2026-04-30 16:24 930K
20260430T12Z_MSC_GDPS_WindV_IsbL-0400_LatLon0.15_PT087H.grib2 2026-04-30 16:24 875K
20260430T12Z_MSC_GDPS_WindV_IsbL-0450_LatLon0.15_PT087H.grib2 2026-04-30 16:24 876K
20260430T12Z_MSC_GDPS_WindV_IsbL-0500_LatLon0.15_PT087H.grib2 2026-04-30 16:24 878K
20260430T12Z_MSC_GDPS_WindV_IsbL-0550_LatLon0.15_PT087H.grib2 2026-04-30 16:24 1.1M
20260430T12Z_MSC_GDPS_WindV_IsbL-0600_LatLon0.15_PT087H.grib2 2026-04-30 16:24 1.1M
20260430T12Z_MSC_GDPS_WindV_IsbL-0650_LatLon0.15_PT087H.grib2 2026-04-30 16:24 1.2M
20260430T12Z_MSC_GDPS_WindV_IsbL-0700_LatLon0.15_PT087H.grib2 2026-04-30 16:24 1.2M
20260430T12Z_MSC_GDPS_WindV_IsbL-0750_LatLon0.15_PT087H.grib2 2026-04-30 16:24 1.2M
20260430T12Z_MSC_GDPS_WindV_IsbL-0800_LatLon0.15_PT087H.grib2 2026-04-30 16:24 1.3M
20260430T12Z_MSC_GDPS_WindV_IsbL-0850_LatLon0.15_PT087H.grib2 2026-04-30 16:24 1.4M
20260430T12Z_MSC_GDPS_WindV_IsbL-0875_LatLon0.15_PT087H.grib2 2026-04-30 16:24 1.4M
20260430T12Z_MSC_GDPS_WindV_IsbL-0900_LatLon0.15_PT087H.grib2 2026-04-30 16:24 1.4M
20260430T12Z_MSC_GDPS_WindV_IsbL-0925_LatLon0.15_PT087H.grib2 2026-04-30 16:24 1.4M
20260430T12Z_MSC_GDPS_WindV_IsbL-0950_LatLon0.15_PT087H.grib2 2026-04-30 16:24 1.4M
20260430T12Z_MSC_GDPS_WindV_IsbL-0970_LatLon0.15_PT087H.grib2 2026-04-30 16:24 1.4M
20260430T12Z_MSC_GDPS_WindV_IsbL-0985_LatLon0.15_PT087H.grib2 2026-04-30 16:24 1.4M
20260430T12Z_MSC_GDPS_WindV_IsbL-1000_LatLon0.15_PT087H.grib2 2026-04-30 16:24 1.7M
20260430T12Z_MSC_GDPS_WindV_IsbL-1015_LatLon0.15_PT087H.grib2 2026-04-30 16:24 1.6M